Weather History for KNFL - September, 2013

Change the Weather History Date:

Sunday, September 1, 2013

  Actual Average Record
Temperature  
Mean Temperature 76 °F -  
Max Temperature 93 °F 86 °F 98 °F (1958)
Min Temperature 60 °F 48 °F 35 °F (1964)
Cooling Degree Days 10    
Growing Degree Days 26 (Base 50)    
Moisture  
Dew Point 43 °F    
Average Humidity 31    
Maximum Humidity 48    
Minimum Humidity 15    
Precipitation  
Precipitation 0.00 in - - ()
Sea Level Pressure  
Sea Level Pressure 29.91 in    
Wind  
Wind Speed 5 mph (SSW)    
Max Wind Speed 15 mph    
Max Gust Speed -    
Visibility 10 miles    
Events Rain    
Averages and records for this station are not official NWS values.
T = Trace of Precipitation, MM = Missing Value Source: NWS Daily Summary

Daily Weather History Graph

Daily Weather History Graph

Search for Another Location

Airport or City:

Trip Planner

Search our weather history database for the weather conditions in past years. The results will help you decide how hot, cold, wet, or windy it might be!

Date:

Astronomy

Sep. 01, 2013 Rise Set
Actual Time 6:23 AM PDT 7:25 PM PDT
Civil Twilight 5:55 AM PDT 7:52 PM PDT
Nautical Twilight 5:23 AM PDT 8:25 PM PDT
Astronomical Twilight 4:49 AM PDT 8:59 PM PDT
Moon 2:50 AM PDT (9/1) 5:04 PM PDT (9/1)
Length of Visible Light 13h 56m
Length of Day
13h 01m
Waning Crescent, 13% of the Moon is Illuminated
Sep 1
Waning Crescent
Sep 5
New
Sep 12
First Quarter
Sep 19
Full
Sep 26
Last Quarter

Hourly Weather History & Observations

Time (PDT) Temp. Heat Index Dew Point Humidity Pressure Visibility Wind Dir Wind Speed Gust Speed Precip Events Conditions
12:56 AM 73.0 °F - 39.9 °F 30% 29.93 in 10.0 mi Calm Calm - N/A   Clear
1:56 AM 71.1 °F - 39.9 °F 32% 29.92 in 10.0 mi SW 5.8 mph - N/A   Clear
2:56 AM 64.0 °F - 39.9 °F 41% 29.91 in 10.0 mi South 4.6 mph - N/A   Clear
3:56 AM 64.0 °F - 39.9 °F 41% 29.91 in 10.0 mi South 5.8 mph - N/A   Clear
4:56 AM 64.0 °F - 39.0 °F 40% 29.91 in 10.0 mi SW 5.8 mph - N/A   Clear
5:56 AM 60.1 °F - 39.0 °F 46% 29.93 in 10.0 mi SSE 6.9 mph - N/A   Clear
6:56 AM 61.0 °F - 39.9 °F 46% 29.94 in 10.0 mi SSE 4.6 mph - N/A   Clear
7:56 AM 71.1 °F - 37.9 °F 30% 29.95 in 10.0 mi SE 3.5 mph - N/A   Clear
8:56 AM 75.9 °F - 39.0 °F 26% 29.95 in 10.0 mi South 4.6 mph - N/A   Clear
9:56 AM 81.0 °F - 37.0 °F 21% 29.95 in 10.0 mi WNW 3.5 mph - N/A   Clear
10:56 AM 84.9 °F - 36.0 °F 17% 29.94 in 10.0 mi Calm Calm - N/A   Clear
11:01 AM 84.2 °F - 35.6 °F 18% 30.02 in 10.0 mi NNE 5.8 mph - N/A   Scattered Clouds
11:56 AM 88.0 °F - 37.0 °F 16% 29.93 in 10.0 mi Variable 3.5 mph - N/A   Scattered Clouds
12:56 PM 89.1 °F - 36.0 °F 15% 29.91 in 10.0 mi Calm Calm - N/A   Mostly Cloudy
1:56 PM 90.0 °F - 37.9 °F 16% 29.88 in 10.0 mi Variable 3.5 mph - N/A   Mostly Cloudy
2:56 PM 91.9 °F - 39.9 °F 16% 29.85 in 10.0 mi WNW 6.9 mph - N/A   Mostly Cloudy
3:56 PM 90.0 °F - 42.1 °F 19% 29.83 in 10.0 mi West 8.1 mph - N/A   Mostly Cloudy
4:56 PM 90.0 °F - 39.9 °F 17% 29.83 in 10.0 mi WSW 6.9 mph - N/A   Overcast
5:21 PM 86.0 °F 84.2 °F 53.6 °F 33% 29.92 in 10.0 mi SSW 15.0 mph - 0.00 in Rain Light Rain
5:43 PM 86.0 °F - 48.2 °F 27% 29.92 in 10.0 mi SSW 11.5 mph - 0.00 in   Overcast
5:56 PM 84.9 °F - 50.0 °F 30% 29.85 in 10.0 mi SW 10.4 mph - 0.00 in Rain Light Rain
6:56 PM 81.0 °F 80.4 °F 53.1 °F 38% 29.84 in 10.0 mi South 10.4 mph - 0.00 in   Clear
7:56 PM 81.0 °F - 51.1 °F 35% 29.86 in 10.0 mi South 11.5 mph - N/A   Partly Cloudy
8:56 PM 78.1 °F - 52.0 °F 40% 29.88 in 10.0 mi SSE 9.2 mph - N/A   Scattered Clouds
9:56 PM 77.0 °F - 53.1 °F 43% 29.90 in 10.0 mi South 11.5 mph - N/A   Clear
10:56 PM 75.0 °F - 54.0 °F 48% 29.91 in 10.0 mi South 9.2 mph - N/A   Clear
11:56 PM 75.0 °F - 54.0 °F 48% 29.91 in 10.0 mi South 9.2 mph - N/A   Partly Cloudy